Regional Weather Roundup
Issued by NWS Charleston, SC

Current Version | Previous Version | Graphics & Text | Print | Product List | Glossary On
Versions: 1 2 3 4 5 6 7 8 9 10 11 12 13 14 15 16 17 18 19 20 21 22 23 24 25 26 27 28 29 30 31 32 33 34 35 36 37 38 39 40 41 42 43 44 45 46 47 48 49 50
000 ASUS42 KCHS 281128 RWRCHS REGIONAL WEATHER ROUNDUP NATIONAL WEATHER SERVICE CHARLESTON SC 700 AM EDT THU APR 28 2016 NOTE: "FAIR" INDICATES FEW OR NO CLOUDS BELOW 12,000 FEET WITH NO SIGNIFICANT WEATHER AND/OR OBSTRUCTIONS TO VISIBILITY. NOT ALL STATIONS ARE QUALITY CONTROLLED. USE DATA WITH CAUTION... ESPECIALLY DEWPOINT OBSERVATIONS. SCZ027-030-031-034>040-042>050-281200- ...SOUTHEAST SOUTH CAROLINA... CITY SKY/WX TMP DP RH WIND PRES REMARKS N CHARLESTON CLOUDY 70 65 84 SW7 29.93R WATERFRONT PRK N/A 71 67 87 SW7 29.91R MOUNT PLEASANT FAIR 72 66 83 SW5 29.95R JOHNS ISLAND FAIR 72 68 88 SW7 29.95R PINOPOLIS N/A 72 66 83 VRB3 29.85R MONCKS CORNER FAIR 66 61 82 SW3 29.94R SUMMERVILLE CLOUDY 68 68 100 CALM 29.95R BEAUFORT MCAS CLOUDY 71 67 87 S3 29.94R BEAUFORT ARPT FAIR 72 66 83 S3 29.94R HAZE HILTON HEAD IS CLOUDY 72 70 94 S7 29.95R WALTERBORO CLOUDY 70 68 94 S3 29.95R ALLENDALE FAIR 66 64 94 CALM 29.94R ...SOUTHERN MIDLANDS AND PEE DEE... CITY SKY/WX TMP DP RH WIND PRES REMARKS GEORGETOWN FAIR 68 64 88 SW5 29.95R KINGSTREE FAIR 63 61 94 CALM 29.94R ORANGEBURG LGT RAIN 66 63 90 CALM 29.93R BARNWELL FAIR 70 64 83 CALM 29.95R AIKEN PTSUNNY 64 63 94 CALM 29.97R MANNING NOT AVBL COLUMBIA CLOUDY 68 60 75 CALM 29.92R SUMTER CLOUDY 66 62 86 S5 29.90R FLORENCE MOCLDY 67 64 90 SW7 29.92R MYRTLE BEACH CLEAR 70 63 78 S6 29.95R N MYRTLE BEACH PTCLDY 70 68 93 SW10 29.93R $$ GAZ063-065-086>088-099>101-113>116-118-119-134>141-150-281200- ...SOUTHEAST GEORGIA... CITY SKY/WX TMP DP RH WIND PRES REMARKS SAVANNAH ARPT LGT RAIN 69 65 86 CALM 29.94R HUNTER AAF MOCLDY 70 69 98 W1 29.92R FORT STEWART CLOUDY 68 64 87 CALM 29.92R STATESBORO CLOUDY 71 69 95 CALM 29.94R SYLVANIA CLOUDY 68 66 94 CALM 29.95R CLAXTON FAIR 67 66 98 CALM 29.95R ...CSRA...CENTRAL AND FAR SOUTHEAST GEORGIA... CITY SKY/WX TMP DP RH WIND PRES REMARKS THOMSON CLOUDY 68 67 96 CALM 29.98R AUGUSTA-BUSH CLOUDY 65 64 97 CALM 29.92R AUGUSTA-DANIEL MOCLDY 69 63 81 S5 29.93R SWAINSBORO FAIR 66 64 94 S3 29.95R VIDALIA MOCLDY 68 64 88 CALM 29.95R EASTMAN PTSUNNY 66 66 100 CALM 29.97R FOG HAZLEHURST FAIR 69 69 100 S5 29.94R ALMA FOG 68 68 100 S6 29.95R VSB 3/4 WAYCROSS CLOUDY 68 68 100 SW7 29.96R JESUP PTSUNNY 70 68 94 CALM 29.96R BAXLEY CLOUDY 70 68 94 S5 29.95R BRUNSWICK CLOUDY 72 68 88 CALM 29.96R SAINT SIMONS CLOUDY 69 68 96 SW3 29.94R $$ SCZ027-028-034-036>038-045-046-048>050-GAZ119-141-281200- ...LAKE AND SUPPLEMENTAL COASTAL OBSERVATIONS... STATION/POSITION TIME TEMP WIND PRES WAVE SWELL AIR SEA DIR/SP/G HT/PER HT/PER/DIR (UTC) (F) (DEG/KT/KT) (MB) (FT/S) (FT/S/D) WINYAH BAY NOT AVBL LAKE MURRAY 1000 70 220/ 5/ 8 1011.9R ACE BASIN NERRS 1045 68 CALM 1014.0R FORT PULASKI 1100 71 71 210/ 4/ 6 1014.4R SAPELO ISLAND 1000 69 200/ 3 1013.0S $$ ANZ835-935-AMZ111-154-330-350-352-354-370-450-454-472-281200- ...C-MAN AND BUOY OBSERVATIONS... STATION/POSITION TIME TEMP WIND PRES WAVE SWELL AIR SEA DIR/SP/G HT/PER HT/PER/DIR (UTC) (F) (DEG/KT/KT) (MB) (FT/S) (FT/S/D) BUOY 41004 1050 72 71 220/ 8/ 10 1013.8R 3/ 5 3/ 5 BUOY 41008 NOT AVBL FOLLY BEACH CMAN 1100 71 230/ 6/ 7 1014.0R CAPERS NEARSHORE 1008 70 69 230/ 12/ 16 1013.1R FRIPP NEARSHORE 1108 71 70 220/ 12/ 16 1013.5R STATION/POSITION TIME TEMP WIND PRES WAVE SWELL AIR SEA DIR/SP/G HT/PER HT/PER/DIR (UTC) (F) (DEG/KT/KT) (MB) (FT/S) (FT/S/D) 5E ST. MARYS GA 1021 71 N/A 2/ 5 FRYING PAN BUOY 1100 72 69 190/ 10/ 12 1014.0R BUOY 41025 1050 71 71 270/ 12/ 16 1014.0R 4/ 6 2/190/ 6 CAPE LOOKOUT NC 1100 69 220/ 7/ 9 1013.8R BUOY 41002 1050 71 70 220/ 6/ 8 1016.8R 3/10 2/ 90/10 BUOY 41010 1050 74 76 190/ 10/ 12 1015.4R 3/11 2/110/11 ST AUGUSTINE FL 1100 69 70 210/ 7/ 11 1015.3R $$

USA.gov is the U.S. government's official web portal to all federal, state and local government web resources and services.